owner,sensor,date,latitude,longitude,vertical_datum,wind_speed,wind_to_direction,wind_speed_of_gust,qcFlag 
DISL,ioos:station:DISL:KATA:1,2014-11-01T00:00:00Z,30.2583,-88.2131,0.0,11.64,326.1,-9999.0,'1111122,1111122,1111122' 
DISL,ioos:station:DISL:KATA:1,2014-11-01T00:30:00Z,30.2583,-88.2131,0.0,12.2,330.6,-9999.0,'1111122,1111122,1111122' 
DISL,ioos:station:DISL:KATA:1,2014-11-01T01:00:00Z,30.2583,-88.2131,0.0,12.21,336.9,-9999.0,'1111122,1111122,1111122' 
DISL,ioos:station:DISL:KATA:1,2014-11-01T01:30:00Z,30.2583,-88.2131,0.0,11.64,338.8,-9999.0,'1111122,1111122,1111122' 
DISL,ioos:station:DISL:KATA:1,2014-11-01T02:00:00Z,30.2583,-88.2131,0.0,12.2,342.3,-9999.0,'1111122,1111122,1111122' 
DISL,ioos:station:DISL:KATA:1,2014-11-01T02:30:00Z,30.2583,-88.2131,0.0,12.59,335.0,-9999.0,'1111122,1111122,1111122' 
DISL,ioos:station:DISL:KATA:1,2014-11-01T03:00:00Z,30.2583,-88.2131,0.0,13.16,339.2,-9999.0,'1111122,1111122,1111122' 
DISL,ioos:station:DISL:KATA:1,2014-11-01T03:30:00Z,30.2583,-88.2131,0.0,13.1,335.6,-9999.0,'1111122,1111122,1111122' 
DISL,ioos:station:DISL:KATA:1,2014-11-01T04:00:00Z,30.2583,-88.2131,0.0,13.86,343.7,-9999.0,'1111122,1111122,1111122' 
DISL,ioos:station:DISL:KATA:1,2014-11-01T04:30:00Z,30.2583,-88.2131,0.0,15.17,357.6,-9999.0,'1111122,1111122,1111122' 
DISL,ioos:station:DISL:KATA:1,2014-11-01T05:00:00Z,30.2583,-88.2131,0.0,15.43,354.7,-9999.0,'1111122,1111122,1111122' 
DISL,ioos:station:DISL:KATA:1,2014-11-01T05:30:00Z,30.2583,-88.2131,0.0,16.21,359.4,-9999.0,'1111122,1111122,1111122' 
DISL,ioos:station:DISL:KATA:1,2014-11-01T06:00:00Z,30.2583,-88.2131,0.0,15.75,0.381,-9999.0,'1111122,1111122,1111122' 
DISL,ioos:station:DISL:KATA:1,2014-11-01T06:30:00Z,30.2583,-88.2131,0.0,16.12,357.1,-9999.0,'1111122,1111122,1111122' 
DISL,ioos:station:DISL:KATA:1,2014-11-01T07:00:00Z,30.2583,-88.2131,0.0,15.71,1.985,-9999.0,'1111122,1111122,1111122' 
DISL,ioos:station:DISL:KATA:1,2014-11-01T07:30:00Z,30.2583,-88.2131,0.0,13.91,358.8,-9999.0,'1111122,1111122,1111122' 
DISL,ioos:station:DISL:KATA:1,2014-11-01T08:00:00Z,30.2583,-88.2131,0.0,14.17,5.992,-9999.0,'1111122,1111122,1111122' 
DISL,ioos:station:DISL:KATA:1,2014-11-01T08:30:00Z,30.2583,-88.2131,0.0,15.41,14.86,-9999.0,'1111122,1111122,1111122' 
DISL,ioos:station:DISL:KATA:1,2014-11-01T09:00:00Z,30.2583,-88.2131,0.0,13.75,12.29,-9999.0,'1111122,1111122,1111122' 
DISL,ioos:station:DISL:KATA:1,2014-11-01T09:30:00Z,30.2583,-88.2131,0.0,12.67,11.61,-9999.0,'1111122,1111122,1111122' 
DISL,ioos:station:DISL:KATA:1,2014-11-01T10:00:00Z,30.2583,-88.2131,0.0,12.72,7.955,-9999.0,'1111122,1111122,1111122' 
DISL,ioos:station:DISL:KATA:1,2014-11-01T10:30:00Z,30.2583,-88.2131,0.0,13.5,14.19,-9999.0,'1111122,1111122,1111122' 
DISL,ioos:station:DISL:KATA:1,2014-11-01T11:00:00Z,30.2583,-88.2131,0.0,13.51,15.31,-9999.0,'1111122,1111122,1111122' 
DISL,ioos:station:DISL:KATA:1,2014-11-01T11:30:00Z,30.2583,-88.2131,0.0,12.79,9.87,-9999.0,'1111122,1111122,1111122' 
DISL,ioos:station:DISL:KATA:1,2014-11-01T12:00:00Z,30.2583,-88.2131,0.0,13.09,13.63,-9999.0,'1111122,1111122,1111122' 
DISL,ioos:station:DISL:KATA:1,2014-11-01T12:30:00Z,30.2583,-88.2131,0.0,12.5,10.93,-9999.0,'1111122,1111122,1111122' 
DISL,ioos:station:DISL:KATA:1,2014-11-01T13:00:00Z,30.2583,-88.2131,0.0,12.03,7.451,-9999.0,'1111122,1111122,1111122' 
DISL,ioos:station:DISL:KATA:1,2014-11-01T13:30:00Z,30.2583,-88.2131,0.0,11.85,14.02,-9999.0,'1111122,1111122,1111122' 
DISL,ioos:station:DISL:KATA:1,2014-11-01T14:00:00Z,30.2583,-88.2131,0.0,10.51,8.22,-9999.0,'1111122,1111122,1111122' 
DISL,ioos:station:DISL:KATA:1,2014-11-01T14:30:00Z,30.2583,-88.2131,0.0,9.92,6.004,-9999.0,'1111122,1111122,1111122' 
DISL,ioos:station:DISL:KATA:1,2014-11-01T15:00:00Z,30.2583,-88.2131,0.0,10.0,4.384,-9999.0,'1111122,1111122,1111122' 
DISL,ioos:station:DISL:KATA:1,2014-11-01T15:30:00Z,30.2583,-88.2131,0.0,9.57,1.335,-9999.0,'1111122,1111122,1111122' 
DISL,ioos:station:DISL:KATA:1,2014-11-01T16:00:00Z,30.2583,-88.2131,0.0,8.11,352.8,-9999.0,'1111122,1111122,1111122' 
DISL,ioos:station:DISL:KATA:1,2014-11-01T16:30:00Z,30.2583,-88.2131,0.0,7.52,346.9,-9999.0,'1111122,1111122,1111122' 
DISL,ioos:station:DISL:KATA:1,2014-11-01T17:00:00Z,30.2583,-88.2131,0.0,8.38,345.4,-9999.0,'1111122,1111122,1111122' 
DISL,ioos:station:DISL:KATA:1,2014-11-01T17:30:00Z,30.2583,-88.2131,0.0,8.45,346.0,-9999.0,'1111122,1111122,1111122' 
DISL,ioos:station:DISL:KATA:1,2014-11-01T18:00:00Z,30.2583,-88.2131,0.0,8.56,350.1,-9999.0,'1111122,1111122,1111122' 
DISL,ioos:station:DISL:KATA:1,2014-11-01T18:30:00Z,30.2583,-88.2131,0.0,8.75,347.5,-9999.0,'1111122,1111122,1111122' 
DISL,ioos:station:DISL:KATA:1,2014-11-01T19:00:00Z,30.2583,-88.2131,0.0,8.32,351.4,-9999.0,'1111122,1111122,1111122' 
DISL,ioos:station:DISL:KATA:1,2014-11-01T19:30:00Z,30.2583,-88.2131,0.0,7.33,328.8,-9999.0,'1111122,1111122,1111122' 
DISL,ioos:station:DISL:KATA:1,2014-11-01T20:00:00Z,30.2583,-88.2131,0.0,8.47,344.3,-9999.0,'1111122,1111122,1111122' 
DISL,ioos:station:DISL:KATA:1,2014-11-01T20:30:00Z,30.2583,-88.2131,0.0,8.19,346.7,-9999.0,'1111122,1111122,1111122' 
DISL,ioos:station:DISL:KATA:1,2014-11-01T21:00:00Z,30.2583,-88.2131,0.0,8.67,348.2,-9999.0,'1111122,1111122,1111122' 
DISL,ioos:station:DISL:KATA:1,2014-11-01T21:30:00Z,30.2583,-88.2131,0.0,8.13,341.9,-9999.0,'1111122,1111122,1111122' 
DISL,ioos:station:DISL:KATA:1,2014-11-01T22:00:00Z,30.2583,-88.2131,0.0,8.86,354.2,-9999.0,'1111122,1111122,1111122' 
DISL,ioos:station:DISL:KATA:1,2014-11-01T22:30:00Z,30.2583,-88.2131,0.0,8.93,354.7,-9999.0,'1111122,1111122,1111122' 
DISL,ioos:station:DISL:KATA:1,2014-11-01T23:00:00Z,30.2583,-88.2131,0.0,9.4,351.2,-9999.0,'1111122,1111122,1111122' 
DISL,ioos:station:DISL:KATA:1,2014-11-01T23:30:00Z,30.2583,-88.2131,0.0,8.83,351.6,-9999.0,'1111122,1111122,1111122' 
DISL,ioos:station:DISL:KATA:1,2014-11-02T00:00:00Z,30.2583,-88.2131,0.0,8.57,350.1,-9999.0,'1111122,1111122,1111122' 
DISL,ioos:station:DISL:KATA:1,2014-11-02T00:30:00Z,30.2583,-88.2131,0.0,8.86,352.6,-9999.0,'1111122,1111122,1111122' 
DISL,ioos:station:DISL:KATA:1,2014-11-02T01:00:00Z,30.2583,-88.2131,0.0,7.96,350.2,-9999.0,'1111122,1111122,1111122' 
DISL,ioos:station:DISL:KATA:1,2014-11-02T01:30:00Z,30.2583,-88.2131,0.0,7.84,353.7,-9999.0,'1111122,1111122,1111122' 
DISL,ioos:station:DISL:KATA:1,2014-11-02T02:00:00Z,30.2583,-88.2131,0.0,8.19,355.0,-9999.0,'1111122,1111122,1111122' 
DISL,ioos:station:DISL:KATA:1,2014-11-02T02:30:00Z,30.2583,-88.2131,0.0,8.79,2.778,-9999.0,'1111122,1111122,1111122' 
DISL,ioos:station:DISL:KATA:1,2014-11-02T03:00:00Z,30.2583,-88.2131,0.0,8.62,19.05,-9999.0,'1111122,1111122,1111122' 
DISL,ioos:station:DISL:KATA:1,2014-11-02T03:30:00Z,30.2583,-88.2131,0.0,8.98,22.46,-9999.0,'1111122,1111122,1111122' 
DISL,ioos:station:DISL:KATA:1,2014-11-02T04:00:00Z,30.2583,-88.2131,0.0,8.62,23.04,-9999.0,'1111122,1111122,1111122' 
DISL,ioos:station:DISL:KATA:1,2014-11-02T04:30:00Z,30.2583,-88.2131,0.0,9.6,20.23,-9999.0,'1111122,1111122,1111122' 
DISL,ioos:station:DISL:KATA:1,2014-11-02T05:00:00Z,30.2583,-88.2131,0.0,10.09,20.66,-9999.0,'1111122,1111122,1111122' 
DISL,ioos:station:DISL:KATA:1,2014-11-02T05:30:00Z,30.2583,-88.2131,0.0,9.32,26.66,-9999.0,'1111122,1111122,1111122' 
DISL,ioos:station:DISL:KATA:1,2014-11-02T06:00:00Z,30.2583,-88.2131,0.0,9.95,29.84,-9999.0,'1111122,1111122,1111122' 
DISL,ioos:station:DISL:KATA:1,2014-11-02T06:30:00Z,30.2583,-88.2131,0.0,8.45,25.3,-9999.0,'1111122,1111122,1111122' 
DISL,ioos:station:DISL:KATA:1,2014-11-02T07:00:00Z,30.2583,-88.2131,0.0,8.68,30.65,-9999.0,'1111122,1111122,1111122' 
DISL,ioos:station:DISL:KATA:1,2014-11-02T07:30:00Z,30.2583,-88.2131,0.0,9.33,28.62,-9999.0,'1111122,1111122,1111122' 
DISL,ioos:station:DISL:KATA:1,2014-11-02T08:00:00Z,30.2583,-88.2131,0.0,9.24,31.69,-9999.0,'1111122,1111122,1111122' 
DISL,ioos:station:DISL:KATA:1,2014-11-02T08:30:00Z,30.2583,-88.2131,0.0,8.68,37.16,-9999.0,'1111122,1111122,1111122' 
DISL,ioos:station:DISL:KATA:1,2014-11-02T09:00:00Z,30.2583,-88.2131,0.0,8.38,38.98,-9999.0,'1111122,1111122,1111122' 
DISL,ioos:station:DISL:KATA:1,2014-11-02T09:30:00Z,30.2583,-88.2131,0.0,8.59,42.45,-9999.0,'1111122,1111122,1111122' 
DISL,ioos:station:DISL:KATA:1,2014-11-02T10:00:00Z,30.2583,-88.2131,0.0,8.8,41.21,-9999.0,'1111122,1111122,1111122' 
DISL,ioos:station:DISL:KATA:1,2014-11-02T10:30:00Z,30.2583,-88.2131,0.0,9.45,52.24,-9999.0,'1111122,1111122,1111122' 
DISL,ioos:station:DISL:KATA:1,2014-11-02T11:00:00Z,30.2583,-88.2131,0.0,6.7,36.19,-9999.0,'1111122,1111122,1111122' 
DISL,ioos:station:DISL:KATA:1,2014-11-02T11:30:00Z,30.2583,-88.2131,0.0,6.56,26.87,-9999.0,'1111122,1111122,1111122' 
DISL,ioos:station:DISL:KATA:1,2014-11-02T12:00:00Z,30.2583,-88.2131,0.0,7.24,36.15,-9999.0,'1111122,1111122,1111122' 
DISL,ioos:station:DISL:KATA:1,2014-11-02T12:30:00Z,30.2583,-88.2131,0.0,7.32,36.09,-9999.0,'1111122,1111122,1111122' 
DISL,ioos:station:DISL:KATA:1,2014-11-02T13:00:00Z,30.2583,-88.2131,0.0,6.96,35.43,-9999.0,'1111122,1111122,1111122' 
DISL,ioos:station:DISL:KATA:1,2014-11-02T13:30:00Z,30.2583,-88.2131,0.0,5.81,33.57,-9999.0,'1111122,1111122,1111122' 
DISL,ioos:station:DISL:KATA:1,2014-11-02T14:00:00Z,30.2583,-88.2131,0.0,5.5,28.28,-9999.0,'1111122,1111122,1111122' 
DISL,ioos:station:DISL:KATA:1,2014-11-02T14:30:00Z,30.2583,-88.2131,0.0,5.99,46.85,-9999.0,'1111122,1111122,1111122' 
DISL,ioos:station:DISL:KATA:1,2014-11-02T15:00:00Z,30.2583,-88.2131,0.0,7.47,58.68,-9999.0,'1111122,1111122,1111122' 
DISL,ioos:station:DISL:KATA:1,2014-11-02T15:30:00Z,30.2583,-88.2131,0.0,6.8,49.79,-9999.0,'1111122,1111122,1111122' 
DISL,ioos:station:DISL:KATA:1,2014-11-02T16:00:00Z,30.2583,-88.2131,0.0,5.86,42.95,-9999.0,'1111122,1111122,1111122' 
DISL,ioos:station:DISL:KATA:1,2014-11-02T16:30:00Z,30.2583,-88.2131,0.0,4.12,40.5,-9999.0,'1111122,1111122,1111122' 
DISL,ioos:station:DISL:KATA:1,2014-11-02T17:00:00Z,30.2583,-88.2131,0.0,2.99,14.83,-9999.0,'1111122,1111122,1111122' 
DISL,ioos:station:DISL:KATA:1,2014-11-02T17:30:00Z,30.2583,-88.2131,0.0,2.24,25.1,-9999.0,'1111122,1111122,1111122' 
DISL,ioos:station:DISL:KATA:1,2014-11-02T18:00:00Z,30.2583,-88.2131,0.0,2.4,13.25,-9999.0,'1111122,1111122,1111122' 
DISL,ioos:station:DISL:KATA:1,2014-11-02T18:30:00Z,30.2583,-88.2131,0.0,1.82,345.5,-9999.0,'1111122,1111122,1111122' 
DISL,ioos:station:DISL:KATA:1,2014-11-02T19:00:00Z,30.2583,-88.2131,0.0,0.63,137.4,-9999.0,'1111122,1111122,1111122' 
DISL,ioos:station:DISL:KATA:1,2014-11-02T19:30:00Z,30.2583,-88.2131,0.0,5.2,71.34,-9999.0,'1111122,1111122,1111122' 
DISL,ioos:station:DISL:KATA:1,2014-11-02T20:00:00Z,30.2583,-88.2131,0.0,5.61,70.56,-9999.0,'1111122,1111122,1111122' 
DISL,ioos:station:DISL:KATA:1,2014-11-02T20:30:00Z,30.2583,-88.2131,0.0,5.76,73.56,-9999.0,'1111122,1111122,1111122' 
DISL,ioos:station:DISL:KATA:1,2014-11-02T21:00:00Z,30.2583,-88.2131,0.0,5.19,72.62,-9999.0,'1111122,1111122,1111122' 
DISL,ioos:station:DISL:KATA:1,2014-11-02T21:30:00Z,30.2583,-88.2131,0.0,5.45,68.62,-9999.0,'1111122,1111122,1111122' 
DISL,ioos:station:DISL:KATA:1,2014-11-02T22:00:00Z,30.2583,-88.2131,0.0,5.22,61.75,-9999.0,'1111122,1111122,1111122' 
DISL,ioos:station:DISL:KATA:1,2014-11-02T22:30:00Z,30.2583,-88.2131,0.0,4.81,56.24,-9999.0,'1111122,1111122,1111122' 
DISL,ioos:station:DISL:KATA:1,2014-11-02T23:00:00Z,30.2583,-88.2131,0.0,5.35,41.48,-9999.0,'1111122,1111122,1111122' 
DISL,ioos:station:DISL:KATA:1,2014-11-02T23:30:00Z,30.2583,-88.2131,0.0,4.96,46.31,-9999.0,'1111122,1111122,1111122' 
DISL,ioos:station:DISL:KATA:1,2014-11-03T00:00:00Z,30.2583,-88.2131,0.0,5.36,34.65,-9999.0,'1111122,1111122,1111122' 
DISL,ioos:station:DISL:KATA:1,2014-11-03T00:30:00Z,30.2583,-88.2131,0.0,4.53,30.69,-9999.0,'1111122,1111122,1111122' 
DISL,ioos:station:DISL:KATA:1,2014-11-03T01:00:00Z,30.2583,-88.2131,0.0,4.72,29.74,-9999.0,'1111122,1111122,1111122' 
DISL,ioos:station:DISL:KATA:1,2014-11-03T01:30:00Z,30.2583,-88.2131,0.0,5.13,21.4,-9999.0,'1111122,1111122,1111122' 
DISL,ioos:station:DISL:KATA:1,2014-11-03T02:00:00Z,30.2583,-88.2131,0.0,4.91,17.93,-9999.0,'1111122,1111122,1111122' 
DISL,ioos:station:DISL:KATA:1,2014-11-03T02:30:00Z,30.2583,-88.2131,0.0,5.74,28.38,-9999.0,'1111122,1111122,1111122' 
DISL,ioos:station:DISL:KATA:1,2014-11-03T03:00:00Z,30.2583,-88.2131,0.0,5.68,24.96,-9999.0,'1111122,1111122,1111122' 
DISL,ioos:station:DISL:KATA:1,2014-11-03T03:30:00Z,30.2583,-88.2131,0.0,5.61,30.76,-9999.0,'1111122,1111122,1111122' 
DISL,ioos:station:DISL:KATA:1,2014-11-03T04:00:00Z,30.2583,-88.2131,0.0,5.02,32.5,-9999.0,'1111122,1111122,1111122' 
DISL,ioos:station:DISL:KATA:1,2014-11-03T04:30:00Z,30.2583,-88.2131,0.0,4.06,46.47,-9999.0,'1111122,1111122,1111122' 
DISL,ioos:station:DISL:KATA:1,2014-11-03T05:00:00Z,30.2583,-88.2131,0.0,3.32,54.05,-9999.0,'1111122,1111122,1111122' 
DISL,ioos:station:DISL:KATA:1,2014-11-03T05:30:00Z,30.2583,-88.2131,0.0,4.18,50.33,-9999.0,'1111122,1111122,1111122' 
DISL,ioos:station:DISL:KATA:1,2014-11-03T06:00:00Z,30.2583,-88.2131,0.0,4.32,48.02,-9999.0,'1111122,1111122,1111122' 
DISL,ioos:station:DISL:KATA:1,2014-11-03T06:30:00Z,30.2583,-88.2131,0.0,4.64,34.48,-9999.0,'1111122,1111122,1111122' 
DISL,ioos:station:DISL:KATA:1,2014-11-03T07:00:00Z,30.2583,-88.2131,0.0,4.52,28.53,-9999.0,'1111122,1111122,1111122' 
DISL,ioos:station:DISL:KATA:1,2014-11-03T07:30:00Z,30.2583,-88.2131,0.0,5.24,43.28,-9999.0,'1111122,1111122,1111122' 
DISL,ioos:station:DISL:KATA:1,2014-11-03T08:00:00Z,30.2583,-88.2131,0.0,6.04,53.66,-9999.0,'1111122,1111122,1111122' 
DISL,ioos:station:DISL:KATA:1,2014-11-03T08:30:00Z,30.2583,-88.2131,0.0,6.93,68.38,-9999.0,'1111122,1111122,1111122' 
DISL,ioos:station:DISL:KATA:1,2014-11-03T09:00:00Z,30.2583,-88.2131,0.0,7.18,60.8,-9999.0,'1111122,1111122,1111122' 
DISL,ioos:station:DISL:KATA:1,2014-11-03T09:30:00Z,30.2583,-88.2131,0.0,6.9,52.17,-9999.0,'1111122,1111122,1111122' 
DISL,ioos:station:DISL:KATA:1,2014-11-03T10:00:00Z,30.2583,-88.2131,0.0,7.96,68.47,-9999.0,'1111122,1111122,1111122' 
DISL,ioos:station:DISL:KATA:1,2014-11-03T10:30:00Z,30.2583,-88.2131,0.0,8.12,75.72,-9999.0,'1111122,1111122,1111122' 
DISL,ioos:station:DISL:KATA:1,2014-11-03T11:00:00Z,30.2583,-88.2131,0.0,8.15,76.02,-9999.0,'1111122,1111122,1111122' 
DISL,ioos:station:DISL:KATA:1,2014-11-03T11:30:00Z,30.2583,-88.2131,0.0,9.22,78.05,-9999.0,'1111122,1111122,1111122' 
DISL,ioos:station:DISL:KATA:1,2014-11-03T12:00:00Z,30.2583,-88.2131,0.0,8.06,77.38,-9999.0,'1111122,1111122,1111122' 
DISL,ioos:station:DISL:KATA:1,2014-11-03T12:30:00Z,30.2583,-88.2131,0.0,9.27,79.49,-9999.0,'1111122,1111122,1111122' 
DISL,ioos:station:DISL:KATA:1,2014-11-03T13:00:00Z,30.2583,-88.2131,0.0,9.28,81.3,-9999.0,'1111122,1111122,1111122' 
DISL,ioos:station:DISL:KATA:1,2014-11-03T13:30:00Z,30.2583,-88.2131,0.0,8.95,77.63,-9999.0,'1111122,1111122,1111122' 
DISL,ioos:station:DISL:KATA:1,2014-11-03T14:00:00Z,30.2583,-88.2131,0.0,8.37,73.16,-9999.0,'1111122,1111122,1111122' 
DISL,ioos:station:DISL:KATA:1,2014-11-03T14:30:00Z,30.2583,-88.2131,0.0,7.7,75.56,-9999.0,'1111122,1111122,1111122' 
DISL,ioos:station:DISL:KATA:1,2014-11-03T15:00:00Z,30.2583,-88.2131,0.0,8.23,75.0,-9999.0,'1111122,1111122,1111122' 
DISL,ioos:station:DISL:KATA:1,2014-11-03T15:30:00Z,30.2583,-88.2131,0.0,7.65,72.47,-9999.0,'1111122,1111122,1111122' 
DISL,ioos:station:DISL:KATA:1,2014-11-03T16:00:00Z,30.2583,-88.2131,0.0,7.52,75.53,-9999.0,'1111122,1111122,1111122' 
DISL,ioos:station:DISL:KATA:1,2014-11-03T16:30:00Z,30.2583,-88.2131,0.0,7.31,74.48,-9999.0,'1111122,1111122,1111122' 
DISL,ioos:station:DISL:KATA:1,2014-11-03T17:00:00Z,30.2583,-88.2131,0.0,6.57,74.32,-9999.0,'1111122,1111122,1111122' 
DISL,ioos:station:DISL:KATA:1,2014-11-03T17:30:00Z,30.2583,-88.2131,0.0,5.42,68.41,-9999.0,'1111122,1111122,1111122' 
DISL,ioos:station:DISL:KATA:1,2014-11-03T18:00:00Z,30.2583,-88.2131,0.0,5.82,66.28,-9999.0,'1111122,1111122,1111122' 
DISL,ioos:station:DISL:KATA:1,2014-11-03T18:30:00Z,30.2583,-88.2131,0.0,5.83,67.01,-9999.0,'1111122,1111122,1111122' 
DISL,ioos:station:DISL:KATA:1,2014-11-03T19:00:00Z,30.2583,-88.2131,0.0,6.76,116.6,-9999.0,'1111122,1111122,1111122' 
DISL,ioos:station:DISL:KATA:1,2014-11-03T19:30:00Z,30.2583,-88.2131,0.0,6.49,82.2,-9999.0,'1111122,1111122,1111122' 
DISL,ioos:station:DISL:KATA:1,2014-11-03T20:00:00Z,30.2583,-88.2131,0.0,5.88,85.8,-9999.0,'1111122,1111122,1111122' 
DISL,ioos:station:DISL:KATA:1,2014-11-03T20:30:00Z,30.2583,-88.2131,0.0,6.2,81.1,-9999.0,'1111122,1111122,1111122' 
DISL,ioos:station:DISL:KATA:1,2014-11-03T21:00:00Z,30.2583,-88.2131,0.0,6.44,86.3,-9999.0,'1111122,1111122,1111122' 
DISL,ioos:station:DISL:KATA:1,2014-11-03T21:30:00Z,30.2583,-88.2131,0.0,6.3,89.2,-9999.0,'1111122,1111122,1111122' 
DISL,ioos:station:DISL:KATA:1,2014-11-03T22:00:00Z,30.2583,-88.2131,0.0,6.77,82.9,-9999.0,'1111122,1111122,1111122' 
DISL,ioos:station:DISL:KATA:1,2014-11-03T22:30:00Z,30.2583,-88.2131,0.0,7.11,81.3,-9999.0,'1111122,1111122,1111122' 
DISL,ioos:station:DISL:KATA:1,2014-11-03T23:00:00Z,30.2583,-88.2131,0.0,6.65,82.4,-9999.0,'1111122,1111122,1111122' 
DISL,ioos:station:DISL:KATA:1,2014-11-03T23:30:00Z,30.2583,-88.2131,0.0,6.97,83.8,-9999.0,'1111122,1111122,1111122' 
DISL,ioos:station:DISL:KATA:1,2014-11-04T00:00:00Z,30.2583,-88.2131,0.0,7.09,78.41,-9999.0,'1111122,1111122,1111122' 
DISL,ioos:station:DISL:KATA:1,2014-11-04T00:30:00Z,30.2583,-88.2131,0.0,6.58,78.68,-9999.0,'1111122,1111122,1111122' 
DISL,ioos:station:DISL:KATA:1,2014-11-04T01:00:00Z,30.2583,-88.2131,0.0,6.33,78.25,-9999.0,'1111122,1111122,1111122' 
DISL,ioos:station:DISL:KATA:1,2014-11-04T01:30:00Z,30.2583,-88.2131,0.0,6.15,77.66,-9999.0,'1111122,1111122,1111122' 
DISL,ioos:station:DISL:KATA:1,2014-11-04T02:00:00Z,30.2583,-88.2131,0.0,6.34,75.86,-9999.0,'1111122,1111122,1111122' 
DISL,ioos:station:DISL:KATA:1,2014-11-04T02:30:00Z,30.2583,-88.2131,0.0,5.83,76.24,-9999.0,'1111122,1111122,1111122' 
DISL,ioos:station:DISL:KATA:1,2014-11-04T03:00:00Z,30.2583,-88.2131,0.0,5.11,80.3,-9999.0,'1111122,1111122,1111122' 
DISL,ioos:station:DISL:KATA:1,2014-11-04T03:30:00Z,30.2583,-88.2131,0.0,5.05,79.43,-9999.0,'1111122,1111122,1111122' 
DISL,ioos:station:DISL:KATA:1,2014-11-04T04:00:00Z,30.2583,-88.2131,0.0,4.51,82.8,-9999.0,'1111122,1111122,1111122' 
DISL,ioos:station:DISL:KATA:1,2014-11-04T04:30:00Z,30.2583,-88.2131,0.0,4.52,83.3,-9999.0,'1111122,1111122,1111122' 
DISL,ioos:station:DISL:KATA:1,2014-11-04T05:00:00Z,30.2583,-88.2131,0.0,5.03,80.9,-9999.0,'1111122,1111122,1111122' 
DISL,ioos:station:DISL:KATA:1,2014-11-04T05:30:00Z,30.2583,-88.2131,0.0,5.09,81.5,-9999.0,'1111122,1111122,1111122' 
DISL,ioos:station:DISL:KATA:1,2014-11-04T06:00:00Z,30.2583,-88.2131,0.0,5.46,80.4,-9999.0,'1111122,1111122,1111122' 
DISL,ioos:station:DISL:KATA:1,2014-11-04T06:30:00Z,30.2583,-88.2131,0.0,4.78,82.5,-9999.0,'1111122,1111122,1111122' 
DISL,ioos:station:DISL:KATA:1,2014-11-04T07:00:00Z,30.2583,-88.2131,0.0,5.62,79.76,-9999.0,'1111122,1111122,1111122' 
DISL,ioos:station:DISL:KATA:1,2014-11-04T07:30:00Z,30.2583,-88.2131,0.0,5.53,82.2,-9999.0,'1111122,1111122,1111122' 
DISL,ioos:station:DISL:KATA:1,2014-11-04T08:00:00Z,30.2583,-88.2131,0.0,5.87,78.09,-9999.0,'1111122,1111122,1111122' 
DISL,ioos:station:DISL:KATA:1,2014-11-04T08:30:00Z,30.2583,-88.2131,0.0,6.68,80.3,-9999.0,'1111122,1111122,1111122' 
DISL,ioos:station:DISL:KATA:1,2014-11-04T09:00:00Z,30.2583,-88.2131,0.0,6.24,81.5,-9999.0,'1111122,1111122,1111122' 
DISL,ioos:station:DISL:KATA:1,2014-11-04T09:30:00Z,30.2583,-88.2131,0.0,6.7,82.4,-9999.0,'1111122,1111122,1111122' 
DISL,ioos:station:DISL:KATA:1,2014-11-04T10:00:00Z,30.2583,-88.2131,0.0,6.16,80.6,-9999.0,'1111122,1111122,1111122' 
DISL,ioos:station:DISL:KATA:1,2014-11-04T10:30:00Z,30.2583,-88.2131,0.0,6.32,83.3,-9999.0,'1111122,1111122,1111122' 
DISL,ioos:station:DISL:KATA:1,2014-11-04T11:00:00Z,30.2583,-88.2131,0.0,6.09,80.5,-9999.0,'1111122,1111122,1111122' 
DISL,ioos:station:DISL:KATA:1,2014-11-04T11:30:00Z,30.2583,-88.2131,0.0,5.74,83.7,-9999.0,'1111122,1111122,1111122' 
DISL,ioos:station:DISL:KATA:1,2014-11-04T12:00:00Z,30.2583,-88.2131,0.0,5.12,74.18,-9999.0,'1111122,1111122,1111122' 
DISL,ioos:station:DISL:KATA:1,2014-11-04T12:30:00Z,30.2583,-88.2131,0.0,6.04,77.61,-9999.0,'1111122,1111122,1111122' 
DISL,ioos:station:DISL:KATA:1,2014-11-04T13:00:00Z,30.2583,-88.2131,0.0,6.0,70.67,-9999.0,'1111122,1111122,1111122' 
DISL,ioos:station:DISL:KATA:1,2014-11-04T13:30:00Z,30.2583,-88.2131,0.0,6.18,70.05,-9999.0,'1111122,1111122,1111122' 
DISL,ioos:station:DISL:KATA:1,2014-11-04T14:00:00Z,30.2583,-88.2131,0.0,6.45,70.79,-9999.0,'1111122,1111122,1111122' 
DISL,ioos:station:DISL:KATA:1,2014-11-04T14:30:00Z,30.2583,-88.2131,0.0,6.16,74.76,-9999.0,'1111122,1111122,1111122' 
DISL,ioos:station:DISL:KATA:1,2014-11-04T15:00:00Z,30.2583,-88.2131,0.0,6.13,70.24,-9999.0,'1111122,1111122,1111122' 
DISL,ioos:station:DISL:KATA:1,2014-11-04T15:30:00Z,30.2583,-88.2131,0.0,5.79,64.02,-9999.0,'1111122,1111122,1111122' 
DISL,ioos:station:DISL:KATA:1,2014-11-04T16:00:00Z,30.2583,-88.2131,0.0,5.84,73.16,-9999.0,'1111122,1111122,1111122' 
DISL,ioos:station:DISL:KATA:1,2014-11-04T16:30:00Z,30.2583,-88.2131,0.0,5.41,80.2,-9999.0,'1111122,1111122,1111122' 
DISL,ioos:station:DISL:KATA:1,2014-11-04T17:00:00Z,30.2583,-88.2131,0.0,4.88,68.28,-9999.0,'1111122,1111122,1111122' 
DISL,ioos:station:DISL:KATA:1,2014-11-04T17:30:00Z,30.2583,-88.2131,0.0,4.82,64.69,-9999.0,'1111122,1111122,1111122' 
DISL,ioos:station:DISL:KATA:1,2014-11-04T18:00:00Z,30.2583,-88.2131,0.0,4.78,68.73,-9999.0,'1111122,1111122,1111122' 
DISL,ioos:station:DISL:KATA:1,2014-11-04T18:30:00Z,30.2583,-88.2131,0.0,4.37,61.75,-9999.0,'1111122,1111122,1111122' 
DISL,ioos:station:DISL:KATA:1,2014-11-04T19:00:00Z,30.2583,-88.2131,0.0,4.97,68.97,-9999.0,'1111122,1111122,1111122' 
DISL,ioos:station:DISL:KATA:1,2014-11-04T19:30:00Z,30.2583,-88.2131,0.0,4.99,71.41,-9999.0,'1111122,1111122,1111122' 
DISL,ioos:station:DISL:KATA:1,2014-11-04T20:00:00Z,30.2583,-88.2131,0.0,4.49,74.03,-9999.0,'1111122,1111122,1111122' 
DISL,ioos:station:DISL:KATA:1,2014-11-04T20:30:00Z,30.2583,-88.2131,0.0,4.58,76.22,-9999.0,'1111122,1111122,1111122' 
DISL,ioos:station:DISL:KATA:1,2014-11-04T21:00:00Z,30.2583,-88.2131,0.0,4.19,73.94,-9999.0,'1111122,1111122,1111122' 
DISL,ioos:station:DISL:KATA:1,2014-11-04T21:30:00Z,30.2583,-88.2131,0.0,4.3,80.4,-9999.0,'1111122,1111122,1111122' 
DISL,ioos:station:DISL:KATA:1,2014-11-04T22:00:00Z,30.2583,-88.2131,0.0,5.04,98.6,-9999.0,'1111122,1111122,1111122' 
DISL,ioos:station:DISL:KATA:1,2014-11-04T22:30:00Z,30.2583,-88.2131,0.0,6.63,93.6,-9999.0,'1111122,1111122,1111122' 
DISL,ioos:station:DISL:KATA:1,2014-11-04T23:00:00Z,30.2583,-88.2131,0.0,5.59,94.2,-9999.0,'1111122,1111122,1111122' 
DISL,ioos:station:DISL:KATA:1,2014-11-04T23:30:00Z,30.2583,-88.2131,0.0,5.38,98.7,-9999.0,'1111122,1111122,1111122' 
DISL,ioos:station:DISL:KATA:1,2014-11-05T00:00:00Z,30.2583,-88.2131,0.0,7.21,109.2,-9999.0,'1111122,1111122,1111122' 
DISL,ioos:station:DISL:KATA:1,2014-11-05T00:30:00Z,30.2583,-88.2131,0.0,7.66,110.9,-9999.0,'1111122,1111122,1111122' 
DISL,ioos:station:DISL:KATA:1,2014-11-05T01:00:00Z,30.2583,-88.2131,0.0,6.78,106.5,-9999.0,'1111122,1111122,1111122' 
DISL,ioos:station:DISL:KATA:1,2014-11-05T01:30:00Z,30.2583,-88.2131,0.0,5.84,107.7,-9999.0,'1111122,1111122,1111122' 
DISL,ioos:station:DISL:KATA:1,2014-11-05T02:00:00Z,30.2583,-88.2131,0.0,4.62,91.0,-9999.0,'1111122,1111122,1111122' 
DISL,ioos:station:DISL:KATA:1,2014-11-05T02:30:00Z,30.2583,-88.2131,0.0,4.77,93.6,-9999.0,'1111122,1111122,1111122' 
DISL,ioos:station:DISL:KATA:1,2014-11-05T03:00:00Z,30.2583,-88.2131,0.0,5.98,133.2,-9999.0,'1111122,1111122,1111122' 
DISL,ioos:station:DISL:KATA:1,2014-11-05T03:30:00Z,30.2583,-88.2131,0.0,6.84,135.3,-9999.0,'1111122,1111122,1111122' 
DISL,ioos:station:DISL:KATA:1,2014-11-05T04:00:00Z,30.2583,-88.2131,0.0,6.99,138.2,-9999.0,'1111122,1111122,1111122' 
DISL,ioos:station:DISL:KATA:1,2014-11-05T04:30:00Z,30.2583,-88.2131,0.0,7.01,137.0,-9999.0,'1111122,1111122,1111122' 